Portland Hillsboro, OR

8:20 AM PDT on July 20, 2017 (GMT -0700)
Portland-Hillsboro

Weather History for KHIO - March, 2013

Change the Weather History Date:

Sunday, March 24, 2013

  Actual Average Record
Temperature  
Mean Temperature 45 °F 47 °F  
Max Temperature 56 °F 57 °F 73 °F (1960)
Min Temperature 33 °F 38 °F 26 °F (1942)
Degree Days  
Heating Degree Days 20 18  
Month to date heating degree days 485 466  
Since 1 July heating degree days 3862 3993  
Cooling Degree Days 0 0  
Month to date cooling degree days 0 0  
Year to date cooling degree days 0 0  
Moisture  
Dew Point 32 °F    
Average Humidity 67    
Maximum Humidity 96    
Minimum Humidity 38    
Precipitation  
Precipitation 0.00 in 0.13 in 1.15 in (1976)
Month to date precipitation 1.74 2.89  
Year to date precipitation 5.08 13.36  
Snow  
Snow 0.00 in - - ()
Month to date snowfall 0.0  
Since 1 July snowfall 0.0  
Snow Depth 0.00 in    
Sea Level Pressure  
Sea Level Pressure 30.19 in    
Wind  
Wind Speed 5 mph (NE)    
Max Wind Speed 13 mph    
Max Gust Speed 17 mph    
Visibility 10 miles    
Events      
T = Trace of Precipitation, MM = Missing Value Source: NWS Daily Summary

Daily Weather History Graph

Daily Weather History Graph

Search for Another Location

Airport or City:

Trip Planner

Search our weather history database for the weather conditions in past years. The results will help you decide how hot, cold, wet, or windy it might be!

Date:

Astronomy

Mar. 24, 2013 Rise Set
Actual Time 7:06 AM PDT 7:30 PM PDT
Civil Twilight 6:36 AM PDT 7:59 PM PDT
Nautical Twilight 6:01 AM PDT 8:34 PM PDT
Astronomical Twilight 5:25 AM PDT 9:11 PM PDT
Moon 4:58 PM PDT (3/24) 5:26 AM PDT (3/24)
Length of Visible Light 13h 22m
Length of Day
12h 23m
Waxing Gibbous, 92% of the Moon is Illuminated
Mar 24
Waxing Gibbous
Mar 27
Full
Apr 2
Last Quarter
Apr 10
New
Apr 18
First Quarter

Hourly Weather History & Observations

Time (PDT) Temp. Windchill Dew Point Humidity Pressure Visibility Wind Dir Wind Speed Gust Speed Precip Events Conditions
12:53 AM 36.0 °F - 32.0 °F 86% 30.28 in 10.0 mi Calm Calm - N/A   Clear
1:53 AM 34.0 °F - 30.9 °F 89% 30.28 in 10.0 mi Calm Calm - N/A   Clear
2:53 AM 35.1 °F - 33.1 °F 92% 30.28 in 10.0 mi Calm Calm - N/A   Scattered Clouds
3:53 AM 35.1 °F 32.2 °F 32.0 °F 89% 30.27 in 10.0 mi ENE 3.5 mph - N/A   Scattered Clouds
4:53 AM 36.0 °F - 33.1 °F 89% 30.26 in 10.0 mi Calm Calm - N/A   Overcast
5:53 AM 35.1 °F - 33.1 °F 92% 30.25 in 10.0 mi Calm Calm - N/A   Overcast
6:53 AM 34.0 °F 31.0 °F 32.0 °F 92% 30.26 in 10.0 mi WNW 3.5 mph - N/A   Overcast
7:53 AM 36.0 °F - 34.0 °F 93% 30.25 in 10.0 mi Calm Calm - N/A   Partly Cloudy
8:53 AM 37.0 °F - 34.0 °F 89% 30.24 in 10.0 mi Calm Calm - N/A   Partly Cloudy
9:53 AM 42.1 °F 40.2 °F 35.1 °F 76% 30.24 in 10.0 mi NNW 3.5 mph - N/A   Partly Cloudy
10:53 AM 48.0 °F - 32.0 °F 54% 30.22 in 10.0 mi North - - N/A   Scattered Clouds
11:53 AM 50.0 °F - 30.9 °F 48% 30.21 in 10.0 mi East 11.5 mph - N/A   Overcast
12:53 PM 51.1 °F - 30.9 °F 46% 30.20 in 10.0 mi East 8.1 mph - N/A   Overcast
1:53 PM 53.1 °F - 32.0 °F 45% 30.19 in 10.0 mi ENE 8.1 mph - N/A   Overcast
2:53 PM 54.0 °F - 30.0 °F 40% 30.17 in 10.0 mi Variable 3.5 mph - N/A   Overcast
3:53 PM 55.0 °F - 30.9 °F 40% 30.15 in 10.0 mi ENE 9.2 mph - N/A   Overcast
4:53 PM 54.0 °F - 30.9 °F 41% 30.14 in 10.0 mi East 9.2 mph - N/A   Overcast
5:53 PM 53.1 °F - 32.0 °F 45% 30.12 in 10.0 mi East 5.8 mph - N/A   Partly Cloudy
6:53 PM 51.1 °F - 30.9 °F 46% 30.12 in 10.0 mi ENE 8.1 mph - N/A   Mostly Cloudy
7:53 PM 48.9 °F - 30.9 °F 50% 30.10 in 10.0 mi East 6.9 mph - N/A   Clear
8:53 PM 46.9 °F - 30.0 °F 52% 30.11 in 10.0 mi ENE 5.8 mph - N/A   Partly Cloudy
9:53 PM 45.0 °F 43.5 °F 30.0 °F 56% 30.11 in 10.0 mi North 3.5 mph - N/A   Scattered Clouds
10:53 PM 41.0 °F 38.0 °F 35.1 °F 79% 30.11 in 10.0 mi NNW 4.6 mph - N/A   Mostly Cloudy
11:53 PM 39.0 °F 36.8 °F 35.1 °F 86% 30.11 in 10.0 mi NW 3.5 mph - N/A   Overcast